User: anonymous   Login
Location: Dos Palmas
(32.4468°N, 116.8732°W)
Time: 09:05:41
(UTC+00:00)
Language:

Cosmos 1844 Rocket - Orbit

View from above orbital plane
View from above orbital plane
View from above satellite
View from above satellite

Ground track
Ground track

The orbit data is extracted from the following two-line orbital elements,

1 17974U 87041B   21266.15687522 -.00000036  00000-0  57469-5 0  9997
2 17974  71.0070 225.1327 0013798 182.4082 188.5597 14.17274684777569
Epoch (UTC): 23 September 2021 03:45:54
Eccentricity: 0.0013798
inclination: 71.0070°
perigee height: 824 km
apogee height: 844 km
right ascension of ascending node: 225.1327°
argument of perigee: 182.4082°
revolutions per day: 14.17274684
mean anomaly at epoch: 188.5597°
orbit number at epoch: 77756

The dashed part of the orbit path shows where the satellite is in the earth's shadow,  

DLR